Location: Powder Track
(41.8531°N, 72.3584°W)
Time: 00:11:57
(UTC+00:00)

Explorer 7 - Visible Passes

Search period start: 29 July 2021 00:00
Search period end: 08 August 2021 00:00
Orbit: 484 x 676 km, 50.3° (Epoch: 28 July)

Date Brightness Start Highest point End Pass type
(mag) Time Alt. Az. Time Alt. Az. Time Alt. Az.
31 Jul 9.2 08:22:07 10° SE 08:23:12 11° SE 08:24:18 10° ESE visible
01 Aug 8.7 08:24:35 10° S 08:27:16 19° SE 08:30:00 10° E visible
02 Aug 7.9 08:28:52 15° SSW 08:31:23 31° SE 08:34:49 10° ENE visible
03 Aug 7.1 08:33:06 19° SSW 08:35:35 52° SE 08:39:20 10° ENE visible
04 Aug 9.2 07:00:59 11° ESE 07:00:59 11° ESE 07:01:37 10° ESE visible
04 Aug 6.5 08:37:16 19° SW 08:39:51 85° SE 08:43:43 10° ENE visible
05 Aug 8.7 07:05:07 19° ESE 07:05:07 19° ESE 07:06:57 10° E visible
05 Aug 6.8 08:41:23 17° WSW 08:44:10 63° NNW 08:48:01 10° NE visible
06 Aug 8.1 07:09:12 29° ESE 07:09:12 29° ESE 07:11:40 10° ENE visible
06 Aug 7.4 08:45:28 13° W 08:48:34 43° NNW 08:52:17 10° NE visible
07 Aug 7.4 07:13:15 45° E 07:13:15 45° E 07:16:09 10° ENE visible
07 Aug 7.9 08:49:35 10° W 08:53:01 33° NNW 08:56:34 10° NE visible
